Regional Weather Roundup
Issued by NWS Boston, MA

Current Version | Previous Version | Text Only | Print | Product List | Glossary Off
Versions: 1 2 3 4 5 6 7 8 9 10 11 12 13 14 15 16 17 18 19 20 21 22 23 24 25 26 27 28
000 ASUS41 KBOX 230510 RWRBOX REGIONAL WEATHER ROUNDUP NATIONAL WEATHER SERVICE TAUNTON MA 100 AM EDT SAT SEP 23 2017 NOTE: "FAIR" INDICATES FEW OR NO CLOUDS BELOW 12,000 FEET WITH NO SIGNIFICANT WEATHER AND/OR OBSTRUCTIONS TO VISIBILITY. MAZALL-230600- EASTERN MASSACHUSETTS CITY SKY/WX TMP DP RH WIND PRES REMARKS BOSTON DRIZZLE 62 60 93 N17G28 29.99F BEVERLY CLOUDY 62 60 93 N13G22 30.00F FOG LAWRENCE CLOUDY 65 56 72 NE13 30.04F BEDFORD CLOUDY 63 55 75 N8 30.01S BLUE HILL N/A 60 58 92 NE13G25 29.99S NORWOOD LGT RAIN 64 62 93 N9 29.98S FOG MARSHFIELD FOG 61 61 100 N9G18 29.97S VSB 3/4 PLYMOUTH LGT RAIN 61 59 93 N17G28 29.95S VSB 1 TAUNTON LGT RAIN 61 59 93 N12G18 29.95S FOG NEW BEDFORD RAIN 61 60 97 N10G20 29.92S FOG $$ MAZALL-230600- CAPE COD AND THE ISLANDS CITY SKY/WX TMP DP RH WIND PRES REMARKS FALMOUTH FOG 61 61 100 NE18G26 29.92S VSB 1/2 HYANNIS LGT RAIN 62 61 96 N15G23 29.89R FOG CHATHAM LGT RAIN 62 62 100 NE12G21 29.91R VSB 1 PROVINCETOWN FOG 59 59 100 NE13 29.95S VSB 1/2 NANTUCKET CLOUDY 63 63 100 NE23 29.85R FOG MARTHAS VNYRD LGT RAIN 64 62 93 N15G24 29.88R FOG $$ MAZALL-230600- CENTRAL AND WESTERN MASSACHUSETTS CITY SKY/WX TMP DP RH WIND PRES REMARKS WORCESTER CLOUDY 62 49 62 N13G24 30.03S FITCHBURG CLOUDY 66 52 60 NW7 30.04F ORANGE CLOUDY 67 49 52 NE7 30.04S SPRINGFIELD CLOUDY 68 51 55 NE12 30.01S WESTFIELD CLOUDY 69 51 52 NE8 30.02S NORTH ADAMS CLEAR 54 52 93 CALM 30.07R PITTSFIELD PTCLDY 60 52 74 W5 30.06R $$ RIZALL-230600- RHODE ISLAND CITY SKY/WX TMP DP RH WIND PRES REMARKS PROVIDENCE LGT RAIN 62 62 100 N15 29.96S NEWPORT LGT RAIN 62 62 100 N16G25 29.92S BLOCK ISLAND LGT RAIN 62 61 96 N20G29 29.90F SMITHFIELD LGT RAIN 60 59 96 N10 29.98S FOG WESTERLY CLOUDY 65 61 87 N16G25 29.93S $$ CTZALL-230600- CONNECTICUT CITY SKY/WX TMP DP RH WIND PRES REMARKS BRADLEY INTL CLOUDY 69 52 54 N10 30.01R HARTFORD MOCLDY 69 53 56 N9 29.99S BRIDGEPORT CLEAR 70 56 61 N16G23 29.96S DANBURY CLOUDY 70 55 59 N6 30.02R GROTON CLOUDY 65 59 81 N17G29 29.91F NEW HAVEN PTCLDY 69 54 58 N17 29.96S CHESTER FAIR 66 57 72 N8G17 29.96S MERIDEN CLOUDY 69 53 56 N10 29.98S WILLIMANTIC MOCLDY 67 56 67 N9G18 29.98S OXFORD CLOUDY 67 55 65 N13G21 30.01S $$ MEZ002-015-021-024-NHZ003-005-008-011-012-014-VTZ005-008-230600- NORTHERN NEW ENGLAND CITY SKY/WX TMP DP RH WIND PRES REMARKS PORTLAND ME CLOUDY 64 51 62 N6 30.06S BANGOR ME MOCLDY 57 50 77 CALM 30.07F CONCORD NH CLOUDY 63 52 67 NW5 30.05S MANCHESTER NH CLOUDY 66 52 60 N6 30.03F NASHUA NH CLOUDY 65 54 67 NW5 30.04F PORTSMOUTH NH CLOUDY 64 49 59 N7 30.03F JAFFREY NH CLOUDY 64 50 60 CALM 30.07S KEENE NH CLOUDY 62 52 69 NE3 30.06S BURLINGTON VT CLEAR 58 54 86 E5 30.09R MT. WASHINGTON PTCLDY 55 52 88 NE8 N/A $$ NYZ052-076-230600- EASTERN NEW YORK CITY SKY/WX TMP DP RH WIND PRES REMARKS ALBANY CLEAR 61 50 67 N6 30.07R NEW YORK CITY PTCLDY 72 57 59 N8 29.98R $$ ANZALL-230600- MARINE OBSERVATIONS STATION/POSITION TIME TEMP WIND PRES VSBY WAVE AIR SEA DIR/SP/G HT/PER (UTC) (F) (DEG/KT/KT) (MB) (MI) (FT/S) BOSTON BUOY 0450 59 58 20/ 17/ 21 1014.6F 10/ 8 BUZZARDS BAY 0400 62 10/ 25/ 27 1012.0R NANTUCKET SOUND 0450 62 61 30/ 21/ 25 1010.9R 4/ 5 MASS BAY-STELLWA 0404 61 59 30/ 19/ 23 1014.6F 10/ 8 ISLE OF SHOALS 0400 61 20/ 17/ 19 1016.6F S OF BLOCK IS NOT AVBL $$ ......................KEY......................... SKY/WX - SKY CONDITION/PRESENT WEATHER TMP - TEMPERATURE IN FAHRENHEIT DWPT - DEWPOINT IN FAHRENHEIT RH - RELATIVE HUMIDITY IN PERCENT WIND - DIRECTION AND SPEED IN MPH PRES - MEAN SEA LEVEL PRESSURE IN INCHES OF HG WCI - WIND CHILL INDEX VSB - VISIBILITY IN MILES HX - HEAT INDEX TC - TEMPERATURE IN CELSIUS VRB - VARIABLE WIND DIRECTION N/A - NOT AVAILABLE

USA.gov is the U.S. government's official web portal to all federal, state and local government web resources and services.